Terminal Aerodrome Forecast
Issued by NWS

Home | Current Version | Previous Version | Text Only | Print | Product List | Glossary On
Versions: 1 2 3 4 5 6 7 8 9 10 11 12
000
FTUS46 KHNX 112300
TAFFAT
TAF
KFAT 112320Z 1200/1224 31010KT P6SM SKC
     FM121100 VRB04KT P6SM SKC
     FM121900 30007KT P6SM SKC=

USA.gov is the U.S. government's official web portal to all federal, state and local government web resources and services.